Pagina principale
METAR-TAF:

METAR-TAF

Aeroporti :

Monte Terminillo, Italia

latitudine: 42-28N, longitudine: 012-59E, altezza: 1874 m

Osservazione

Il bollettino è stato emesso 45 minuti fa, alle 14:55 UTC
Vento 7 kt da nord-ovest, variando fra sud-ovest e nord
Temperature 15°C
Umidità 63%
Pressione 1022 hPa

METAR: LIRK 131455Z AUTO 32007KT 220V350 //// 15/08 Q1022

Ora: 17:40 (15:40 UTC)


TAF: mancante

Osservazioni e previsioni meteorologiche di più di 4000 aeroporti (messaggi METAR e TAF).

Le stazioni disponibili sono rappresentate dai dischi gialli e rossi sulla carta.

Puntare il mouse per vedere il nome della stazione.

Clicca sopra per visualizzare le osservazioni e previsioni meteorologiche.

Per cambiare la mappa : fare clic sui pulsanti verdi con una croce nera per ingrandire, il pulsante verde con un trattino per diminuire, o sulla freccia verde per le mappe adiacenti.


METAR-TAF: